[[{"header":{"parameterUnit":"m.s-1","parameterCategory":1,"la1":30.2991,"la2":30.254,"lo1":-89.0895,"lo2":-89.0444,"dy":0.0017,"dx":0.0017,"nx":28,"ny":28,"refTime":"2025-04-26T09:00:00:Z","depth":0,"parameterNumber":2,"parameterNumberName":"U-component_of_WINDS"},"data":[0,0,0,0,0,0,0,0,0,0,0,0,0,0,0,0,0,0,0,0,0,0,0,0,0,0,0,0,0,0,0,0,0,0,0,0,0,0,0,0,0,0,0,0,0,0,0,0,0,0,0,0,0,0,0,0,0,0,1.4891,1.4891,0,1.4837,1.4837,1.4836,1.4728,1.4726,1.4724,1.4722,1.4669,1.467,1.4671,0,0,0,0,0,0,0,0,0,0,0,0,0,1.4902,1.4903,1.4892,1.4891,1.489,1.4837,1.4836,1.4836,1.4728,1.4726,1.4723,1.4721,1.4669,1.467,1.4671,0,0,0,0,0,0,0,0,0,0,0,0,0,1.4878,1.4903,1.4892,1.483,1.4824,1.4837,1.4836,1.4836,1.4729,1.4726,1.4722,1.4719,1.4669,1.467,1.4671,1.4741,0,0,1.4673,1.4674,0,0,0,0,0,0,0,0,1.488,1.4878,1.484,1.4834,1.4828,1.4786,1.4821,1.4804,1.473,1.4765,1.4722,1.4718,1.4711,1.4708,1.4705,1.4738,1.4736,1.4674,1.4674,1.4674,1.4675,0,0,0,0,0,0,0,1.4881,1.4879,1.487,1.4839,1.4832,1.4805,1.4798,1.4817,1.4757,1.4762,1.4754,1.4749,1.4707,1.4705,1.4703,1.4735,1.4674,1.4674,1.4675,1.4675,1.4818,1.4821,0,0,0,0,0,0,1.4892,1.4882,1.4872,1.4868,1.4846,1.4808,1.48,1.4803,1.4756,1.4746,1.4752,1.4744,1.4705,1.4702,1.4701,1.4776,1.4674,1.4675,1.4676,1.4814,1.4818,1.4822,0,0,0,0,0,0,1.4892,1.4892,1.4874,1.4873,1.4868,1.4811,1.4815,1.4803,1.4801,1.4748,1.4737,1.476,1.4702,1.47,1.473,1.4773,1.4676,1.4677,1.4811,1.4816,1.482,1.4929,0,0,0,0,0,0,1.4893,1.4893,1.4919,1.4874,1.4869,1.4905,1.4818,1.4805,1.4802,1.4792,1.4754,1.4744,1.4699,1.4729,1.4731,1.4772,1.4677,1.4806,1.4813,1.4819,1.4922,1.4937,1.4951,0,0,0,0,0,1.4894,1.4954,1.4921,1.492,1.49,1.4907,1.4904,1.485,1.4806,1.4831,1.4797,1.4745,1.4768,1.4733,1.4734,1.4777,1.4804,1.4811,1.4818,1.4915,1.4934,1.495,0,0,0,0,0,0,1.5007,1.4947,1.491,1.4957,1.4938,1.4889,1.492,1.4873,1.4867,1.4858,1.4792,1.4784,1.4823,1.4803,1.4765,1.4839,1.4777,1.4785,1.4851,1.4869,1.4883,1.4886,1.4678,0,0,0,0,0,1.5038,1.5048,1.4995,1.5041,1.5033,1.4978,1.4979,1.4939,1.4917,1.4909,1.4877,1.4858,1.486,1.4864,1.4864,1.4919,1.4907,1.4948,1.4962,1.4975,1.4982,1.5005,1.5022,1.4846,1.4846,1.4846,0,0,1.5101,1.5069,1.508,1.5063,1.5043,1.5054,1.4972,1.4989,1.4996,1.4912,1.4937,1.4913,1.4888,1.493,1.4947,1.4914,1.5028,1.4984,1.4994,1.4994,1.5014,1.5031,1.5046,1.4851,1.485,1.4849,0,0,1.522,1.5199,1.5233,1.5214,1.5184,1.5147,1.5155,1.5112,1.5092,1.5117,1.5052,1.506,1.5067,1.505,1.5042,1.5152,1.5103,1.5154,1.5229,1.5253,1.5267,1.5279,1.5315,1.5329,1.5161,1.5162,1.5162,0,1.5303,1.5317,1.5257,1.5276,1.5269,1.5191,1.5224,1.5209,1.5182,1.5179,1.5143,1.5146,1.5124,1.5159,1.5185,1.5183,1.5188,1.5157,1.527,1.5281,1.5291,1.5325,1.5339,1.5168,1.5167,1.5167,1.5166,0,1.5417,1.5428,1.5459,1.5431,1.5429,1.5455,1.5398,1.5403,1.5362,1.5328,1.5352,1.5322,1.5312,1.5318,1.528,1.5347,1.5327,1.5282,1.5217,1.5315,1.5345,1.5358,1.5177,1.5174,1.5173,1.5171,0,0,1.5608,1.5544,1.5557,1.5541,1.5501,1.5508,1.553,1.5519,1.5522,1.5506,1.5521,1.5526,1.5482,1.5474,1.5433,1.5454,1.5538,1.5405,1.5404,1.5429,1.5606,1.5639,1.5655,1.5506,1.5508,1.551,1.5607,0,1.5717,1.5749,1.5694,1.574,1.5746,1.5671,1.5689,1.5667,1.5635,1.5636,1.5602,1.5605,1.5549,1.5543,1.556,1.5525,1.5573,1.5517,1.5518,1.5519,1.5525,1.5671,1.5706,1.5799,1.5619,1.5621,1.5622,0,1.5849,1.5835,1.588,1.5833,1.5834,1.5852,1.5835,1.5838,1.581,1.5785,1.5773,1.5724,1.5741,1.568,1.5701,1.5664,1.5661,1.5644,1.5646,1.5642,1.5575,1.5669,1.5828,1.5841,1.5641,1.5639,1.5638,0,1.5979,1.5973,1.5997,1.5987,1.5935,1.5948,1.5927,1.5895,1.5891,1.5876,1.5872,1.5861,1.5854,1.5846,1.5794,1.5755,1.5821,1.5756,1.5799,1.58,1.5815,1.5815,1.5974,1.5818,1.5818,1.5817,1.5817,0,1.6105,1.6135,1.6054,1.607,1.61,1.6036,1.6068,1.604,1.6011,1.6019,1.5954,1.5963,1.5895,1.5896,1.5856,1.5877,1.5876,1.5855,1.5844,1.586,1.5862,1.5856,1.5847,1.5821,1.582,1.5819,1.5819,0,1.6255,1.6203,1.6225,1.6172,1.6159,1.6183,1.6138,1.6149,1.6112,1.6123,1.6121,1.6064,1.6061,1.6009,1.5996,1.5969,1.6006,1.5984,1.6015,1.6007,1.6051,1.6047,1.621,1.6227,1.6063,1.6065,1.6066,0,1.6338,1.6358,1.6307,1.6306,1.6287,1.6288,1.6282,1.622,1.6216,1.6183,1.6198,1.619,1.6179,1.6178,1.6135,1.6124,1.61,1.6158,1.6098,1.6112,1.6097,1.6095,1.6096,1.617,1.6172,1.6174,1.6175,0,1.6489,1.6461,1.6454,1.6437,1.6431,1.6416,1.6396,1.64,1.6331,1.633,1.6325,1.6317,1.6301,1.6293,1.6273,1.6251,1.6201,1.6194,1.6203,1.6218,1.6234,1.6223,1.6046,1.6191,1.6189,1.6188,1.6187,1.6187,1.6606,1.6619,1.6583,1.6577,1.6555,1.6537,1.6543,1.6506,1.6501,1.6482,1.6446,1.6446,1.6414,1.6382,1.6364,1.6363,1.6333,1.6347,1.635,1.6353,1.6361,1.6236,1.6359,1.6359,1.6358,1.6358,1.6358,0,1.675,1.6723,1.6718,1.669,1.6685,1.6637,1.6612,1.661,1.661,1.6584,1.6574,1.6567,1.6558,1.6514,1.6499,1.6506,1.6483,1.6505,1.6502,1.6497,1.639,1.6382,1.6524,1.6523,1.6523,1.6523,1.6523,1.6523,1.6825,1.6843,1.6811,1.6817,1.6789,1.6787,1.6776,1.6759,1.6737,1.6732,1.6723,1.6693,1.6659,1.6641,1.663,1.6617,1.6613,1.6642,1.6622,1.6522,1.6505,1.649,1.6482,1.6643,1.6643,1.6728,1.6729,1.673]},{"header":{"parameterUnit":"m.s-1","parameterCategory":1,"la1":30.2991,"la2":30.254,"lo1":-89.0895,"lo2":-89.0444,"dy":0.0017,"dx":0.0017,"nx":28,"ny":28,"refTime":"2025-04-26T09:00:00:Z","depth":0,"parameterNumber":3,"parameterNumberName":"V-component_of_WINDS"},"data":[0,0,0,0,0,0,0,0,0,0,0,0,0,0,0,0,0,0,0,0,0,0,0,0,0,0,0,0,0,0,0,0,0,0,0,0,0,0,0,0,0,0,0,0,0,0,0,0,0,0,0,0,0,0,0,0,0,0,3.3386,3.3387,0,3.3444,3.3444,3.3445,3.3405,3.3403,3.3401,3.34,3.3452,3.3455,3.3458,0,0,0,0,0,0,0,0,0,0,0,0,0,3.3235,3.3238,3.3386,3.3387,3.3388,3.3444,3.3444,3.3445,3.3405,3.3403,3.3401,3.3399,3.3451,3.3455,3.3458,0,0,0,0,0,0,0,0,0,0,0,0,0,3.3297,3.3239,3.3386,3.3375,3.3374,3.3444,3.3444,3.3445,3.3406,3.3403,3.34,3.3398,3.345,3.3454,3.3459,3.3541,0,0,3.3473,3.3475,0,0,0,0,0,0,0,0,3.3294,3.3303,3.3375,3.3375,3.3375,3.3415,3.341,3.3477,3.3406,3.3393,3.34,3.3397,3.3441,3.3446,3.3463,3.3543,3.3545,3.3473,3.3476,3.3478,3.3479,0,0,0,0,0,0,0,3.3289,3.33,3.3409,3.3376,3.3376,3.3364,3.337,3.3423,3.3431,3.3394,3.3392,3.3399,3.3441,3.3459,3.3464,3.3546,3.3473,3.3477,3.348,3.3482,3.3695,3.3698,0,0,0,0,0,0,3.3287,3.3297,3.3407,3.341,3.3327,3.3369,3.3376,3.3404,3.3431,3.3432,3.3402,3.3397,3.3452,3.3459,3.3466,3.3562,3.3478,3.3482,3.3485,3.3692,3.3696,3.3699,0,0,0,0,0,0,3.3284,3.3297,3.3404,3.3353,3.3366,3.3375,3.3407,3.3407,3.3425,3.3436,3.3437,3.3419,3.345,3.3459,3.3522,3.3563,3.3484,3.3489,3.3689,3.3693,3.3697,3.3755,0,0,0,0,0,0,3.328,3.3296,3.3329,3.3354,3.3369,3.3462,3.341,3.341,3.3434,3.3429,3.3453,3.3454,3.3449,3.3516,3.3527,3.3568,3.3492,3.3685,3.3691,3.3696,3.375,3.3761,3.3771,0,0,0,0,0,3.3274,3.3342,3.3331,3.3344,3.341,3.3465,3.3473,3.3468,3.3437,3.3469,3.3476,3.3453,3.3558,3.3523,3.3535,3.3578,3.3682,3.3689,3.3695,3.3745,3.3759,3.3771,0,0,0,0,0,0,3.3318,3.3345,3.3333,3.3411,3.3436,3.3458,3.3498,3.3483,3.3515,3.3509,3.3499,3.3505,3.3571,3.3581,3.3542,3.3658,3.3615,3.3624,3.3648,3.3662,3.3672,3.3667,3.3496,0,0,0,0,0,3.3338,3.3383,3.3402,3.3469,3.3483,3.3489,3.3512,3.3506,3.3531,3.3541,3.3553,3.3576,3.3614,3.3639,3.3674,3.3752,3.3755,3.3787,3.3798,3.3807,3.3814,3.3854,3.3868,3.372,3.372,3.372,0,0,3.3377,3.3397,3.3425,3.3478,3.3497,3.3542,3.3497,3.3546,3.3578,3.3547,3.3608,3.3618,3.3643,3.3714,3.3745,3.3724,3.3856,3.3815,3.3822,3.3824,3.3862,3.3876,3.3889,3.3725,3.3724,3.3723,0,0,3.3471,3.3492,3.3549,3.3569,3.36,3.3603,3.3617,3.3642,3.3648,3.3709,3.3687,3.3724,3.379,3.3808,3.3826,3.3929,3.3908,3.3941,3.3994,3.4034,3.4045,3.4056,3.409,3.4103,3.3948,3.3948,3.3949,0,3.3514,3.3583,3.3579,3.363,3.3653,3.3631,3.3687,3.3707,3.3746,3.3761,3.3738,3.382,3.3836,3.3909,3.3935,3.3951,3.3964,3.3936,3.4045,3.4055,3.4064,3.4097,3.411,3.3952,3.3952,3.3951,3.3951,0,3.3634,3.3682,3.3724,3.3765,3.3793,3.3847,3.385,3.3878,3.387,3.3876,3.3938,3.3956,3.3994,3.4012,3.4004,3.4085,3.407,3.4046,3.4002,3.4082,3.4112,3.4125,3.3957,3.3956,3.3955,3.3954,0,0,3.3754,3.3795,3.381,3.3828,3.3861,3.3896,3.3948,3.3988,3.4012,3.404,3.4081,3.4139,3.4117,3.4137,3.4131,3.4166,3.4243,3.4137,3.4137,3.4154,3.4331,3.4348,3.4362,3.4231,3.4234,3.4236,3.4328,0,3.3848,3.3941,3.394,3.4025,3.4067,3.4047,3.4092,3.4116,3.4123,3.4158,3.4165,3.4205,3.4174,3.4186,3.422,3.4227,3.4278,3.4221,3.4267,3.4269,3.4259,3.4378,3.4396,3.4482,3.434,3.4343,3.4344,0,3.3969,3.4004,3.4093,3.412,3.4137,3.4178,3.4214,3.425,3.4275,3.4278,3.4302,3.4291,3.4341,3.4298,3.4366,3.4327,3.4346,3.4353,3.4356,3.4358,3.4309,3.4381,3.451,3.4522,3.4363,3.4361,3.436,0,3.4045,3.4114,3.4176,3.4193,3.4226,3.4254,3.4269,3.4293,3.4317,3.4348,3.4363,3.4399,3.4418,3.4445,3.4443,3.4413,3.4512,3.4469,3.4513,3.4513,3.4532,3.453,3.4664,3.4549,3.4549,3.4549,3.4548,0,3.4148,3.4202,3.4211,3.4249,3.431,3.4308,3.4367,3.4379,3.44,3.4438,3.4423,3.4459,3.4455,3.4491,3.449,3.4545,3.4554,3.4556,3.4554,3.4556,3.4555,3.4566,3.4559,3.4552,3.4551,3.4551,3.455,0,3.4241,3.4249,3.4316,3.4343,3.435,3.4394,3.4415,3.445,3.4457,3.4505,3.4516,3.4526,3.4567,3.4569,3.4615,3.4614,3.4681,3.4674,3.4673,3.4671,3.4713,3.4709,3.4856,3.4874,3.475,3.4752,3.4753,0,3.4305,3.4347,3.4379,3.4405,3.4422,3.4463,3.4489,3.4489,3.4515,3.4548,3.4579,3.4619,3.4651,3.4717,3.4727,3.4762,3.4754,3.4804,3.4759,3.4759,3.4752,3.4748,3.4752,3.4811,3.4812,3.4814,3.4815,0,3.4416,3.4419,3.4457,3.4497,3.4528,3.4558,3.4587,3.4608,3.4611,3.4641,3.4685,3.471,3.4759,3.4798,3.4833,3.4845,3.4829,3.4829,3.4841,3.4841,3.4838,3.4838,3.4694,3.4825,3.4824,3.4823,3.4822,3.4822,3.4495,3.4531,3.456,3.4602,3.4625,3.4652,3.4686,3.4698,3.4735,3.4776,3.4774,3.4821,3.4845,3.4891,3.4907,3.4942,3.4925,3.4942,3.4946,3.4949,3.4953,3.4835,3.4949,3.4948,3.4948,3.4948,3.4948,0,3.4603,3.4622,3.4661,3.4703,3.4736,3.4723,3.4754,3.4781,3.4824,3.4849,3.4882,3.4931,3.4969,3.4983,3.502,3.5045,3.5039,3.5055,3.5051,3.5054,3.4967,3.4953,3.5059,3.5059,3.5059,3.5059,3.5059,3.5059,3.4664,3.4724,3.473,3.4801,3.4818,3.4866,3.4884,3.4909,3.4929,3.4985,3.5018,3.5028,3.5048,3.5086,3.512,3.5123,3.5136,3.5154,3.5154,3.5072,3.506,3.5049,3.5036,3.5158,3.5158,3.5237,3.5238,3.5239]}]]